Flag for United Kingdom Weather past 2 weeks in Horsham, England, United Kingdom

Now
73 °F

Clear.


Feels Like: 75 °F
Forecast: 58 / 75 °F
Wind: 9 mph from East

Location: London / Gatwick Airport

Current Time: Sep 18, 2014 at 1:03:31 PM

Latest Report: Sep 18, 2014 at 12:20 PM


Visibility: 5 mi

Pressure: 29.80 "Hg

Humidity: 74%

Dew point: 64 °F

Location of HorshamLocation

Historic Weather in Horsham — Graph

°F

Horsham temperature yesterday

Maximum temperature yesterday: 70 °F (at 1:50 PM)
Minimum temperature yesterday: 54 °F (at 2:50 AM)
Average temperature yesterday: 62 °F

Past Weeks' High & Low Weather Summary

 TemperatureHumidityPressure
High75 °F (Sep 16, 12:50 PM)100% (Sep 4, 12:20 AM)30.30 "Hg (Sep 4, 12:20 AM)
Low46 °F (Sep 10, 5:50 AM)43% (Sep 8, 1:50 PM)29.77 "Hg (Sep 18, 4:50 AM)
Average61 °F82%30.07 "Hg
* Reported Sep 3 11:20 AM — Sep 18 11:50 AM, Horsham, Weather by CustomWeather, © 2014

Note: Actual official high and low records may vary slightly from our data, if they occured in-between our weather recording intervals... More about our weather records

Advertising

Horsham weather history for previous 24 hours

 ConditionsComfort  
Time TempWeatherWind HumidityBarometerVisibility
11:50 AM
Sep 18
72 °FClear.12 mph73%29.80 "Hg4 mi
11:20 AM72 °FScattered clouds.12 mph73%29.80 "Hg4 mi
10:50 AM70 °FHaze.10 mph78%29.80 "Hg3 mi
10:20 AM68 °FScattered clouds.9 mph83%29.80 "Hg3 mi
9:50 AM64 °FHaze.8 mph88%29.80 "Hg2 mi
9:20 AM64 °FHaze.9 mph88%29.80 "Hg2 mi
8:50 AM63 °FHaze.6 mph94%29.80 "Hg2 mi
8:20 AM61 °FPartly sunny.7 mph94%29.80 "Hg1 mi
7:50 AM61 °FFog.6 mph94%29.80 "Hg1 mi
7:20 AM59 °FFog.8 mph100%29.77 "Hg1 mi
6:50 AM59 °FFog.7 mph100%29.77 "Hg1 mi
6:20 AM59 °FFog.6 mph94%29.77 "Hg1 mi
5:50 AM59 °FFog.7 mph94%29.77 "Hg1 mi
5:20 AM57 °FFog.6 mph100%29.77 "Hg1 mi
4:50 AM59 °FFog.6 mph94%29.77 "Hg1 mi
4:20 AM59 °FFog.5 mph94%29.80 "Hg1 mi
3:50 AM59 °FFog.5 mph94%29.80 "Hg1 mi
3:20 AM59 °FHaze.5 mph94%29.80 "Hg1 mi
2:50 AM59 °FHaze.5 mph94%29.80 "Hg1 mi
2:20 AM61 °FHaze.5 mph88%29.80 "Hg2 mi
1:50 AM61 °FHaze.5 mph94%29.80 "Hg2 mi
1:20 AM61 °FPassing clouds.5 mph94%29.83 "Hg2 mi
12:50 AM61 °FPassing clouds.6 mph94%29.83 "Hg2 mi
12:20 AM61 °FHaze.7 mph94%29.83 "Hg2 mi
11:50 PM
Sep 17
63 °FHaze.9 mph88%29.83 "Hg2 mi
11:20 PM63 °FHaze.7 mph88%29.83 "Hg3 mi
10:50 PM63 °FPassing clouds.8 mph88%29.83 "Hg2 mi
10:20 PM63 °FHaze.6 mph94%29.83 "Hg2 mi
9:50 PM63 °FHaze.7 mph94%29.83 "Hg2 mi
9:20 PM63 °FHaze.7 mph94%29.83 "Hg3 mi
8:50 PM64 °FHaze.9 mph88%29.83 "Hg3 mi
8:20 PM64 °FHaze.9 mph88%29.83 "Hg3 mi
7:50 PM64 °FHaze.9 mph88%29.83 "Hg3 mi
7:20 PM64 °FClear.8 mph88%29.83 "Hg4 mi
6:50 PM66 °FClear.10 mph83%29.83 "Hg4 mi
6:20 PM66 °FPassing clouds.10 mph83%29.83 "Hg5 mi
5:50 PM68 °FPassing clouds.12 mph78%29.83 "Hg5 mi
5:20 PM68 °FPassing clouds.9 mph78%29.83 "Hg5 mi
4:50 PM70 °FPassing clouds.12 mph69%29.83 "Hg5 mi
4:20 PM70 °FPassing clouds.14 mph73%29.83 "Hg5 mi
3:50 PM70 °FPassing clouds.14 mph73%29.83 "Hg5 mi
3:20 PM70 °FScattered clouds.13 mph73%29.83 "Hg4 mi
2:50 PM70 °FScattered clouds.13 mph69%29.83 "Hg4 mi
2:20 PM70 °FScattered clouds.12 mph73%29.86 "Hg4 mi
1:50 PM70 °FScattered clouds.13 mph73%29.86 "Hg4 mi
1:20 PM68 °FPartly sunny.14 mph73%29.86 "Hg4 mi
Weather by CustomWeather, © 2014

See weather overviewHow to use our weather pages